Regional Weather Roundup
Issued by NWS

Home | Current Version | Previous Version | Graphics & Text | Print | Product List | Glossary On
Versions: 1 2 3 4 5 6 7 8 9 10 11 12 13 14 15 16 17 18 19 20 21 22 23 24 25 26 27 28 29 30 31 32 33 34 35 36 37 38 39 40 41 42 43 44 45 46 47 48 49 50
000
ASUS45 KCYS 040010
RWRWY

WYOMING REGIONAL WEATHER ROUNDUP
NATIONAL WEATHER SERVICE CHEYENNE WY
600 PM MDT MON AUG 03 2015

NOTE:  "FAIR" INDICATES FEW OR NO CLOUDS BELOW 12,000 FEET
WITH NO SIGNIFICANT WEATHER AND/OR OBSTRUCTIONS TO VISIBILITY.

WYZ001-040100-
YELLOWSTONE NATIONAL PARK

CITY           SKY/WX    TMP DP  RH WIND       PRES   REMARKS
LK YELLOWSTONE   N/A     67  43  41 CALM      30.22S
6HR MIN TEMP:  64; 6HR MAX TEMP:  75;

W YELLOWSTONE  NOT AVBL

$$
WYZ002>013-054>058-071-098>099-040100-
NORTHERN WYOMING

CITY           SKY/WX    TMP DP  RH WIND       PRES   REMARKS
JACKSON        MOSUNNY   64  54  68 N8        30.14F
CODY           FAIR      79  50  36 N9        29.96S
GREYBULL       FAIR      90  45  21 SE12      29.87S
6HR MIN TEMP:  82; 6HR MAX TEMP:  92;

WORLAND        FAIR      83  41  22 SE20G29   29.93R
6HR MIN TEMP:  80; 6HR MAX TEMP:  91;

SHERIDAN       FAIR      87  52  29 SE12      29.90S
6HR MIN TEMP:  87; 6HR MAX TEMP:  91;

BUFFALO        FAIR      82  53  36 S3        30.00S
6HR MIN TEMP:  82; 6HR MAX TEMP:  86;

GILLETTE       FAIR      85  54  34 SE9       29.96S
6HR MIN TEMP:  81; 6HR MAX TEMP:  87;

HULETT         FAIR      81  52  36 E13       29.99S
NEWCASTLE      FAIR      82  52  34 MISG      29.98S

$$
WYZ014>020-022>026-101>103-040100-
CENTRAL WYOMING

CITY           SKY/WX    TMP DP  RH WIND       PRES   REMARKS
BIG PINEY      LGT RAIN  58  54  86 CALM      30.14F FOG
6HR MIN TEMP:  57; 6HR MAX TEMP:  72; 6HR PCP:  0.05;

PINEDALE       FAIR      61  50  67 SW14G22   30.13S THUNDER
DUBOIS         MOCLDY    70  34  26 SE12G22   30.11F
LANDER         LGT RAIN  61  55  81 W6        30.03F
6HR MIN TEMP:  61; 6HR MAX TEMP:  82; 6HR PCP:  0.13;

RIVERTON       CLOUDY    67  51  56 SW13G24   30.04R
6HR MIN TEMP:  67; 6HR MAX TEMP:  82; 6HR PCP: TRACE;

CASPER         LGT RAIN  69  49  48 SE12      30.06F
6HR MIN TEMP:  59; 6HR MAX TEMP:  86; 6HR PCP:  0.73;

DOUGLAS        FAIR      75  47  36 NW10      30.03R
6HR MIN TEMP:  75; 6HR MAX TEMP:  90;


$$
WYZ021-027>030-104>119-040100-
SOUTHERN WYOMING

CITY           SKY/WX    TMP DP  RH WIND       PRES   REMARKS
EVANSTON       CLOUDY    56  52  86 W10       30.21S
6HR MIN TEMP:  53; 6HR MAX TEMP:  59; 6HR PCP:  0.20;

KEMMERER       CLOUDY    57  54  88 W16G23    30.17S
FORT BRIDGER   DRIZZLE   55  55 100 W20G26    30.20S
ROCK SPRINGS   CLOUDY    60  55  83 SW21      30.12R
6HR MIN TEMP:  60; 6HR MAX TEMP:  75; 6HR PCP: TRACE;

DIXON          MOCLDY    67  56  69 E6        30.16F THUNDER
RAWLINS        TSTM      65  53  65 W18G33    30.12R
6HR MIN TEMP:  66; 6HR MAX TEMP:  77; 6HR PCP:  0.02;

SARATOGA       TSTM      63  52  67 W16G25    30.14S
LARAMIE        PTSUNNY   73  34  23 SE22      30.16F
6HR MIN TEMP:  73; 6HR MAX TEMP:  83;

CHEYENNE       PTSUNNY   77  37  23 S15G29    30.11F
6HR MIN TEMP:  77; 6HR MAX TEMP:  86;

TORRINGTON     FAIR      85  61  44 SE6       29.94S
6HR MIN TEMP:  79; 6HR MAX TEMP:  88;

PINE BLUFFS    FAIR      79  41  25 S9        30.05S

$$



USA.gov is the U.S. government's official web portal to all federal, state and local government web resources and services.